TimeMST,TemperatureF,Dew PointF,Humidity,Sea Level PressureIn,VisibilityMPH,Wind Direction,Wind SpeedMPH,Gust SpeedMPH,PrecipitationIn,Events,Conditions,WindDirDegrees,DateUTC
12:56 AM,21.9,16.0,78,30.36,10.0,South,5.8,-,N/A,,Clear,170,2013-02-16 07:56:00
1:56 AM,24.1,16.0,71,30.34,10.0,SE,4.6,-,N/A,,Clear,140,2013-02-16 08:56:00
2:56 AM,19.9,14.0,78,30.34,10.0,SSE,6.9,-,N/A,,Clear,150,2013-02-16 09:56:00
3:56 AM,19.4,14.0,80,30.20,10.0,South,5.8,-,N/A,,Clear,180,2013-02-16 10:56:00
4:56 AM,16.0,12.0,84,30.32,10.0,Calm,Calm,-,N/A,,Clear,0,2013-02-16 11:56:00
5:56 AM,19.0,12.9,77,30.32,10.0,Calm,Calm,-,N/A,,Clear,0,2013-02-16 12:56:00
6:56 AM,19.0,14.0,81,30.31,10.0,South,6.9,-,N/A,,Clear,180,2013-02-16 13:56:00
7:56 AM,16.0,12.9,88,30.34,10.0,Calm,Calm,-,N/A,,Clear,0,2013-02-16 14:56:00
8:56 AM,21.9,16.0,78,30.30,10.0,Calm,Calm,-,N/A,,Clear,0,2013-02-16 15:56:00
9:56 AM,26.1,17.1,69,30.27,10.0,Calm,Calm,-,N/A,,Clear,0,2013-02-16 16:56:00
10:56 AM,30.9,19.0,61,30.27,10.0,Calm,Calm,-,N/A,,Clear,0,2013-02-16 17:56:00
11:56 AM,34.0,21.9,61,30.21,10.0,Calm,Calm,-,N/A,,Clear,0,2013-02-16 18:56:00
12:56 PM,37.9,23.0,55,30.16,10.0,Calm,Calm,-,N/A,,Clear,0,2013-02-16 19:56:00
1:56 PM,41.0,23.0,49,30.09,10.0,Calm,Calm,-,N/A,,Clear,0,2013-02-16 20:56:00
2:56 PM,39.0,24.1,55,30.08,10.0,ESE,4.6,-,N/A,,Clear,120,2013-02-16 21:56:00
3:56 PM,44.1,24.1,45,30.03,10.0,Calm,Calm,-,N/A,,Clear,0,2013-02-16 22:56:00
4:56 PM,44.1,21.9,42,30.01,10.0,ESE,3.5,-,N/A,,Clear,120,2013-02-16 23:56:00
5:56 PM,39.0,23.0,53,29.99,10.0,South,3.5,-,N/A,,Clear,180,2013-02-17 00:56:00
6:56 PM,36.0,23.0,59,29.98,10.0,SE,5.8,-,N/A,,Clear,140,2013-02-17 01:56:00
7:56 PM,30.9,21.9,69,29.99,10.0,ENE,4.6,-,N/A,,Clear,70,2013-02-17 02:56:00
8:56 PM,32.0,21.0,64,29.94,10.0,Variable,3.5,-,N/A,,Mostly Cloudy,0,2013-02-17 03:56:00
9:56 PM,30.9,21.0,67,29.91,10.0,ENE,8.1,-,N/A,,Overcast,60,2013-02-17 04:56:00
10:56 PM,33.8,21.2,60,29.78,10.0,East,6.9,-,N/A,,Overcast,80,2013-02-17 05:56:00
11:56 PM,32.0,21.0,64,29.81,10.0,East,6.9,-,N/A,,Overcast,80,2013-02-17 06:56:00